Regional Weather Roundup
Issued by NWS Cleveland, OH

Home | Current Version | Previous Version | Graphics & Text | Print | Product List | Glossary On
Versions: 1 2 3 4 5 6 7 8 9 10 11 12 13 14 15 16 17 18 19 20 21 22 23 24 25 26 27 28 29 30 31 32 33 34 35 36 37 38 39 40 41 42 43 44 45 46 47 48 49 50
000
ASUS41 KCLE 300502
RWRCLE
OHIO REGIONAL WEATHER ROUNDUP
NATIONAL WEATHER SERVICE CLEVELAND, OH
100 AM EDT SAT JUL 30 2016

NOTE: "FAIR" INDICATES FEW OR NO CLOUDS BELOW 12,000 FEET WITH NO
SIGNIFICANT WEATHER AND/OR OBSTRUCTIONS TO VISIBILITY.

OHZ001>008-015>018-024>027-034-035-043-044-300600-
   NORTHWEST OHIO

CITY           SKY/WX    TMP DP  RH WIND       PRES   REMARKS
DEFIANCE       CLOUDY    72  68  87 CALM      29.96S
FINDLAY        CLOUDY    72  67  84 E6        29.93S
TOLEDO EXPRESS CLOUDY    71  68  90 NE7       29.96R
TOLEDO EXEC    CLOUDY    74  68  81 NE8       29.97R
LIMA           CLOUDY    71  70  96 E6        29.94S
$$

OHZ009>014-019>023-028>033-038-089-300600-
   NORTHEAST OHIO

CITY           SKY/WX    TMP DP  RH WIND       PRES   REMARKS
CLE-HOPKINS    CLOUDY    75  65  70 E5        29.97S
CLE-LAKEFRONT  PTCLDY    77  65  66 E5        29.94S
CUY CO. ARPT   NOT AVBL
LORAIN-ELYRIA  MOCLDY    70  66  87 SE5       29.96S
ASHTABULA      PTCLDY    66  66 100 CALM      29.98S
AKRON-CANTON   CLOUDY    69  66  90 NE5       29.97S FOG
WOOSTER        CLOUDY    67  65  93 N3        29.97S
MANSFIELD      MOCLDY    70  67  90 CALM      29.96F
YOUNGSTOWN     MOCLDY    67  65  93 S5        29.97F
$$

OHZ042-051>053-060>062-070>072-077>081-300600-
  SOUTHWEST OHIO

CITY           SKY/WX    TMP DP  RH WIND       PRES   REMARKS
CINC-COVINGTON CLOUDY    70  70 100 S7        29.94S
CINC-LUNKEN    CLOUDY    70 N/A N/A CALM      29.94R HAZE
HAMILTON       CLOUDY    72  70  93 E6        29.94R
DAYTON         MOCLDY    70  69  97 SE3       29.95F
WRIGHT-PAT AFB NOT AVBL
DAYTON GENERAL CLOUDY    71  67  87 SE6       29.93F
WILMINGTON     CLOUDY    69  68  96 CALM      29.94F
$$

OHZ036-037-039>041-045>050-054>059-063>069-073>076-082>088-300600-
  CENTRAL AND SOUTHEAST OHIO

CITY           SKY/WX    TMP DP  RH WIND       PRES   REMARKS
COLUMBUS       LGT RAIN  72  67  84 S5        29.93F
OSU AIRPORT    CLOUDY    72  69  90 SW3       29.94S
BOLTON FIELD   CLOUDY    72  72 100 CALM      29.95S FOG
RICKENBACK AFB RAIN      70  70  98 E5        29.94S
NEWARK         PTCLDY    70  68  93 CALM      29.94S
MARION         PTCLDY    70  66  87 CALM      29.95S
LANCASTER      LGT RAIN  73  71  93 S7        29.96R
ZANESVILLE     PTCLDY    73  69  87 CALM      29.94F
NEW PHILLY     CLOUDY    72  68  87 E3        29.95S
$$



USA.gov is the U.S. government's official web portal to all federal, state and local government web resources and services.